SV1EML-13 Weather Reports


Display with metric or nautical units.
time (UTC)temp
F
wind
direction
speed
MPH
gust
MPH
rain 1hr
in
rain 24hr
in
rain mn
in
humidity
%
barometer
mb
20260507192306 69 0.0 0.0 0.00 0.00 0.00 70 1019.0
20260507183805 69 0.0 0.0 0.00 0.00 0.00 80 1018.9
20260507175307 69 0.0 0.0 0.00 0.00 0.00 79 1018.7
20260507170805 70 0.0 0.0 0.00 0.00 0.00 70 1018.6
20260507162307 71 0.0 0.0 0.00 0.00 0.00 63 1018.2
20260507153805 72 0.0 0.0 0.00 0.00 0.00 69 1018.3
20260507145307 73 0.0 0.0 0.00 0.00 0.00 64 1018.5
20260507140805 73 0.0 0.0 0.00 0.00 0.00 48 1018.6
20260507132307 75 0.0 0.0 0.00 0.00 0.00 53 1018.1
20260507123805 73 0.0 0.0 0.00 0.00 0.00 84 1018.6
20260507115307 74 0.0 0.0 0.00 0.00 0.00 98 1018.8
20260507110805 73 0.0 0.0 0.00 0.00 0.00 10 1019.2
20260507102307 73 0.0 0.0 0.00 0.00 0.00 10 1018.6
20260507093805 72 0.0 0.0 0.00 0.00 0.00 10 1018.7
20260507085306 72 0.0 0.0 0.00 0.00 0.00 10 1018.5
20260507080805 71 0.0 0.0 0.00 0.00 0.00 10 1018.7
20260507072307 70 0.0 0.0 0.00 0.00 0.00 10 1018.2
20260507063805 69 0.0 0.0 0.00 0.00 0.00 10 1018.5
20260507055306 68 0.0 0.0 0.00 0.00 0.00 10 1018.2
20260507050805 66 0.0 0.0 0.00 0.00 0.00 10 1017.5
20260507042307 64 0.0 0.0 0.00 0.00 0.00 10 1017.5
20260507033805 64 0.0 0.0 0.00 0.00 0.00 10 1017.6
20260507025306 64 0.0 0.0 0.00 0.00 0.00 10 1017.3
20260507020805 64 0.0 0.0 0.00 0.00 0.00 10 1017.2
20260507012306 64 0.0 0.0 0.00 0.00 0.00 10 1017.0
20260507003805 65 0.0 0.0 0.00 0.00 0.00 10 1016.5
20260506235306 65 0.0 0.0 0.00 0.00 0.00 10 1016.7
20260506230805 66 0.0 0.0 0.00 0.00 0.00 10 1017.2
20260506222306 66 0.0 0.0 0.00 0.00 0.00 10 1017.3
20260506205306 68 0.0 0.0 0.00 0.00 0.00 10 1017.7
20260506200805 68 0.0 0.0 0.00 0.00 0.00 87 1017.6